Regional Weather Roundup
Issued by NWS

Home | Current Version | Previous Version | Text Only | Print | Product List | Glossary Off
Versions: 1 2 3 4 5 6 7 8 9 10 11 12 13 14 15 16 17 18 19 20 21 22 23 24 25 26 27 28 29 30 31 32 33 34 35 36 37 38 39 40 41 42 43 44 45 46 47 48 49 50

000
ASUS43 KMKX 230011
RWRWI

WISCONSIN REGIONAL WEATHER ROUNDUP
NATIONAL WEATHER SERVICE MILWAUKEE/SULLIVAN WI
700 PM CDT WED MAR 22 2017

NOTE: "FAIR" INDICATES FEW OR NO CLOUDS BELOW 12,000 FEET WITH NO
SIGNIFICANT WEATHER AND/OR OBSTRUCTIONS TO VISIBILITY.

WIZ001-002-006>008-014>016-023>028-230100-
NORTHWEST WISCONSIN

CITY           SKY/WX    TMP DP  RH WIND       PRES   REMARKS
SUPERIOR ARPT  CLEAR     28  20  71 E7        30.39F WCI  21
6HR MIN TEMP:  28; 6HR MAX TEMP:  32;

ASHLAND        PTCLDY    29  16  58 NE6       30.41S WCI  23
6HR MIN TEMP:  29; 6HR MAX TEMP:  35;

HAYWARD        CLOUDY    35   6  29 S5        30.36F WCI  31
6HR MIN TEMP:  33; 6HR MAX TEMP:  39;

SIREN          CLOUDY    36   6  29 S10       30.36F WCI  28
6HR MIN TEMP:  34; 6HR MAX TEMP:  39;

CUMBERLAND     PTCLDY    32  10  40 S8        30.36F WCI  25
RICE LAKE      PTCLDY    34   8  34 CALM      30.39F
6HR MIN TEMP:  32; 6HR MAX TEMP:  37;

CHETEK         PTCLDY    34   9  35 S5        30.38F WCI  30
6HR MIN TEMP:  32; 6HR MAX TEMP:  37;

LADYSMITH      CLEAR     33  13  43 SE6       30.41F WCI  27
6HR MIN TEMP:  32; 6HR MAX TEMP:  37;

EAU CLAIRE     PTCLDY    37   6  27 SE9       30.38F WCI  30
6HR MIN TEMP:  32; 6HR MAX TEMP:  39;

MENOMONIE      CLOUDY    38   8  29 SE7       30.39F WCI  32
6HR MIN TEMP:  34; 6HR MAX TEMP:  40;

NEW RICHMOND   CLOUDY    36   8  31 S9        30.36F WCI  29
6HR MIN TEMP:  33; 6HR MAX TEMP:  38;

OSCEOLA        CLOUDY    37  11  34 SE12      30.39F WCI  29
6HR MIN TEMP:  34; 6HR MAX TEMP:  40;

$$

WIZ003>005-009-010-017-018-230100-
NORTH CENTRAL WISCONSIN

CITY           SKY/WX    TMP DP  RH WIND       PRES   REMARKS
MANITOWISH WTR CLEAR     31   6  34 S6        30.36F WCI  26
6HR MIN TEMP:  28; 6HR MAX TEMP:  35;

ARBOR VITAE    CLEAR     33   6  32 S6        30.37F WCI  27
6HR MIN TEMP:  28; 6HR MAX TEMP:  37;

WOODRUFF       CLEAR     33   6  32 S6        30.37F WCI  27
6HR MIN TEMP:  28; 6HR MAX TEMP:  37;

RHINELANDER    CLEAR     33   5  30 S7        30.39F WCI  27
6HR MIN TEMP:  29; 6HR MAX TEMP:  37;

EAGLE RIVER    CLEAR     32   0  25 CALM      30.38S
6HR MIN TEMP:  29; 6HR MAX TEMP:  35;

LAND O LAKES   CLEAR     33   0  25 CALM      30.39F
6HR MIN TEMP:  29; 6HR MAX TEMP:  36;

PHILLIPS       CLOUDY    32   9  38 S8        30.38S WCI  25
6HR MIN TEMP:  29; 6HR MAX TEMP:  36;

TOMAHAWK       CLOUDY    32   6  33 S3        30.40F
6HR MIN TEMP:  30; 6HR MAX TEMP:  36;

MEDFORD        CLEAR     30  13  48 SE5       30.39F WCI  25
6HR MIN TEMP:  27; 6HR MAX TEMP:  33;

MERRILL        CLEAR     33   6  32 SW6       30.41F WCI  28
6HR MIN TEMP:  30; 6HR MAX TEMP:  36;

$$

WIZ029-030-035-036-043>047-230100-
CENTRAL WISCONSIN

CITY           SKY/WX    TMP DP  RH WIND       PRES   REMARKS
WAUSAU         CLEAR     32   7  35 S8        30.41F WCI  25
6HR MIN TEMP:  29; 6HR MAX TEMP:  35;

MOSINEE        MOCLDY    30  10  43 S6        30.43F WCI  24
MARSHFIELD     PTCLDY    33  10  38 S8        30.40F WCI  26
6HR MIN TEMP:  29; 6HR MAX TEMP:  36;

STEVENS POINT  PTCLDY    31  11  43 SE8       30.44F WCI  23
6HR MIN TEMP:  28; 6HR MAX TEMP:  35;

WAUPACA        PTCLDY    33  13  44 SE5       30.47F WCI  29
6HR MIN TEMP:  33; 6HR MAX TEMP:  38;

WAUTOMA        PTCLDY    34  14  43 SE8       30.47F WCI  27
6HR MIN TEMP:  31; 6HR MAX TEMP:  37;

WISC RAPIDS    CLOUDY    35   7  31 SE6       30.44F WCI  30
6HR MIN TEMP:  31; 6HR MAX TEMP:  39;

CAMP DOUGLAS   MOCLDY    36  10  35 SE8       30.43F WCI  29
$$

WIZ011>013-019>022-031-037>040-048>050-230100-
NORTHEAST WISCONSIN

CITY           SKY/WX    TMP DP  RH WIND       PRES   REMARKS
ANTIGO         PTCLDY    31  12  45 SE9       30.41F WCI  23
6HR MIN TEMP:  28; 6HR MAX TEMP:  33;

SHAWANO        PTCLDY    34  12  40 S7        30.48F WCI  28
OCONTO         CLOUDY    27  18  68 E3        30.51F
6HR MIN TEMP:  27; 6HR MAX TEMP:  31;

STURGEON BAY   CLOUDY    25  16  68 SE7       30.53F WCI  17
6HR MIN TEMP:  25; 6HR MAX TEMP:  30;

GREEN BAY      PTCLDY    33  21  61 S9        30.50F WCI  25
6HR MIN TEMP:  30; 6HR MAX TEMP:  36;

MANITOWOC      PTCLDY    26  17  68 SE5       30.53F WCI  20
6HR MIN TEMP:  26; 6HR MAX TEMP:  29; 6HR PCP: TRACE;

APPLETON       MOCLDY    30  14  51 VRB5      30.47F WCI  25
CLINTONVILLE   CLEAR     32  12  43 S9        30.48F WCI  24
OSHKOSH        CLEAR     31  19  61 E3        30.48F
6HR MIN TEMP:  29; 6HR MAX TEMP:  34;

$$

WIZ032>034-041-042-053>061-230100-
SOUTHWEST WISCONSIN

CITY           SKY/WX    TMP DP  RH WIND       PRES   REMARKS
LA CROSSE      CLEAR     41  10  28 S9        30.42F
6HR MIN TEMP:  36; 6HR MAX TEMP:  43;

SPARTA         CLEAR     38  10  32 SE7       30.43F WCI  32
6HR MIN TEMP:  34; 6HR MAX TEMP:  41;

VIROQUA        CLEAR     36  10  32 SE9       30.41F WCI  29
6HR MIN TEMP:  33; 6HR MAX TEMP:  40;

BOSCOBEL       CLOUDY    40   9  28 VRB3      30.45S
6HR MIN TEMP:  37; 6HR MAX TEMP:  43;

PRAIRIE DU CHI PTCLDY    39   9  28 SE6       30.43F WCI  35
6HR MIN TEMP:  36; 6HR MAX TEMP:  42;

PLATTEVILLE    CLOUDY    37  17  42 SE8       30.43S WCI  31
6HR MIN TEMP:  34; 6HR MAX TEMP:  41;

$$

WIZ056-057-062-063-064-067-068-230100-
SOUTH CENTRAL WISCONSIN

CITY           SKY/WX    TMP DP  RH WIND       PRES   REMARKS
REEDSBURG      PTCLDY    35  14  41 CALM      30.45S
6HR MIN TEMP:  32; 6HR MAX TEMP:  38;

BARABOO/DELLS  PTCLDY    35  15  43 SE5       30.45S WCI  31
6HR MIN TEMP:  32; 6HR MAX TEMP:  39;

LONE ROCK      CLOUDY    39  13  34 SE8       30.45S WCI  33
6HR MIN TEMP:  34; 6HR MAX TEMP:  42;

MINERAL POINT  PTCLDY    37  14  38 E5        30.43S WCI  34
MADISON        MOCLDY    36  15  42 SE9       30.45F WCI  29
6HR MIN TEMP:  33; 6HR MAX TEMP:  39;

MIDDLETON      PTCLDY    37  19  46 SE7       30.45F WCI  32
6HR MIN TEMP:  34; 6HR MAX TEMP:  40;

WATERTOWN      PTCLDY    32  19  57 E10       30.48S WCI  24
6HR MIN TEMP:  32; 6HR MAX TEMP:  37;

MONROE         MOCLDY    36  18  48 E9        30.43F WCI  29
JANESVILLE     MOCLDY    37  18  44 E14       30.47S WCI  29
$$

WIZ051-052-058>065-066-070>072-230100-
SOUTHEAST WISCONSIN

CITY           SKY/WX    TMP DP  RH WIND       PRES   REMARKS
MILWAUKEE      MOCLDY    28  16  60 E7        30.52F WCI  21
6HR MIN TEMP:  28; 6HR MAX TEMP:  34;

WAUKESHA       CLEAR     27  18  69 E8        30.51F WCI  18
MILWAUKEE/TIMM CLEAR     28  16  59 E7        30.53F WCI  21
RACINE         CLEAR     26  16  65 NE8       30.53F WCI  18
6HR MIN TEMP:  26; 6HR MAX TEMP:  34;

KENOSHA        CLEAR     26  17  68 NE8       30.52F WCI  18
6HR MIN TEMP:  26; 6HR MAX TEMP:  34;

FOND DU LAC    CLEAR     33  18  53 SE10      30.48F WCI  25
6HR MIN TEMP:  31; 6HR MAX TEMP:  36;

SHEBOYGAN      CLEAR     26  16  65 E5        30.53S WCI  20
6HR MIN TEMP:  26; 6HR MAX TEMP:  31;

WEST BEND      CLEAR     28  18  64 SE7       30.51F WCI  21
JUNEAU         CLEAR     32  19  60 E8        30.49S WCI  25
6HR MIN TEMP:  31; 6HR MAX TEMP:  36;

$$

LSZ147-162-230100-
LAKE SUPERIOR

STATION/POSITION TIME  TEMP    WIND        PRES    WAVE
                       AIR SEA DIR/SP/G            HT/PER
                 (UTC) (F)     (DEG/KT/KT) (MB)    (FT/S)
DEVILS ISLAND    0000   27      90/ 14/ 15 1031.0F
PORT WING        2340   32      40/ 12/ 14 1029.1F
SAXON HARBOR     2340   29      50/  7/ 11 1029.1F
$$

LMZ867-665-643>646-230100-
LAKE MICHIGAN

STATION/POSITION TIME  TEMP    WIND        PRES    WAVE
                       AIR SEA DIR/SP/G            HT/PER
                 (UTC) (F)     (DEG/KT/KT) (MB)    (FT/S)
CHAMBERS ISLAND  2340   27     110/  3/  5 1032.8F
NORTHPORT PIER   0000   25     160/  3/ 10 1033.2
SISTER BAY       2235   29     130/  7/ 10   N/A
KEWAUNEE LAKESHO 2348   26     130



USA.gov is the U.S. government's official web portal to all federal, state and local government web resources and services.